Back to Top

Language: 

My Weather Underground Personal Weather Station Historical Data with Graphs...

Delerius Weather Station Historical Data
Daily Summary for January 19, 2017 Units:  Metric    English   Both
« Previous Day
Next Day »
Daily Weekly Monthly Yearly Custom
  High: Low: Average:
Temperature: 7.8 °C 6.4 °C 7.2 °C
Dew Point: 6.2 °C 4.9 °C 5.7 °C
Humidity: 94 % 86 % 90 %
Wind Speed: 8 km/h 0 km/h 0.8 km/h
Wind Gust: 14.5 km/h - -
Wind:- - WNW
Pressure: 1037.8 hPa 1035.8 hPa -
Precipitation: 0 mm    
Historical Graphs
 
 
Tabular Data for January 19, 2017
Time Temperature Dew Point Pressure Wind Wind Speed Wind Gust Humidity Rainfall Rate (Hourly) solar Conditions
00:00 7.4 °C 6.1 °C 1037.1 hPa WNW 6.4 km/h 6.4 km/h 91 % 0 mm 0 W/m2
00:01 7.4 °C 6 °C 1037.1 hPa WNW 1.6 km/h -1607.7 km/h 91 % 0 mm 0 W/m2
00:05 7.4 °C 6.1 °C 1037.1 hPa WNW 3.2 km/h 6.4 km/h 91 % 0 mm 0 W/m2
00:06 7.4 °C 6 °C 1037.1 hPa WNW 1.6 km/h -1607.7 km/h 91 % 0 mm 0 W/m2
00:11 7.4 °C 6 °C 1037.1 hPa WNW 1.6 km/h -1607.7 km/h 91 % 0 mm 0 W/m2
00:15 7.4 °C 6 °C 1037.1 hPa WNW 1.6 km/h 1.6 km/h 91 % 0 mm 0 W/m2
00:16 7.4 °C 6 °C 1037.1 hPa WNW 1.6 km/h -1607.7 km/h 91 % 0 mm 0 W/m2
00:20 7.4 °C 6 °C 1037.1 hPa WNW 3.2 km/h 3.2 km/h 91 % 0 mm 0 W/m2
00:21 7.4 °C 6 °C 1037.1 hPa WNW 1.6 km/h -1607.7 km/h 91 % 0 mm 0 W/m2
00:26 7.4 °C 6 °C 1037.1 hPa WNW 3.2 km/h -1607.7 km/h 91 % 0 mm 0 W/m2
00:30 7.4 °C 6 °C 1037.1 hPa West 4.8 km/h 6.4 km/h 91 % 0 mm 0 W/m2
00:31 7.4 °C 6 °C 1037.1 hPa WNW 3.2 km/h -1607.7 km/h 91 % 0 mm 0 W/m2
00:35 7.3 °C 5.9 °C 1037.1 hPa WNW 6.4 km/h 11.3 km/h 91 % 0 mm 0 W/m2
00:36 7.4 °C 6 °C 1037.1 hPa WNW 3.2 km/h -1607.7 km/h 91 % 0 mm 0 W/m2
00:40 7.3 °C 5.9 °C 1037.1 hPa WNW 8 km/h 11.3 km/h 91 % 0 mm 0 W/m2
00:41 7.3 °C 5.9 °C 1037.1 hPa WNW 6.4 km/h -1607.7 km/h 91 % 0 mm 0 W/m2
00:45 7.3 °C 5.9 °C 1037.1 hPa WNW 8 km/h 11.3 km/h 91 % 0 mm 0 W/m2
00:46 7.3 °C 5.9 °C 1037.1 hPa WNW 6.4 km/h -1607.7 km/h 91 % 0 mm 0 W/m2
00:50 7.3 °C 5.9 °C 1037.1 hPa NW 4.8 km/h 4.8 km/h 91 % 0 mm 0 W/m2
00:51 7.3 °C 5.9 °C 1037.1 hPa WNW 6.4 km/h -1607.7 km/h 91 % 0 mm 0 W/m2
00:55 7.3 °C 5.9 °C 1036.8 hPa NW 1.6 km/h 4.8 km/h 91 % 0 mm 0 W/m2
00:56 7.3 °C 5.9 °C 1036.8 hPa NW 1.6 km/h -1607.7 km/h 91 % 0 mm 0 W/m2
01:01 7.3 °C 5.9 °C 1036.8 hPa NW 1.6 km/h -1607.7 km/h 91 % 0 mm 0 W/m2
01:05 7.3 °C 5.9 °C 1037.1 hPa Calm   14.5 km/h 91 % 0 mm 0 W/m2
01:06 7.3 °C 5.9 °C 1036.8 hPa NW 1.6 km/h -1607.7 km/h 91 % 0 mm 0 W/m2
01:11 7.3 °C 5.9 °C 1037.1 hPa Calm   -1607.7 km/h 91 % 0 mm 0 W/m2
01:15 7.3 °C 5.9 °C 1037.1 hPa Calm   14.5 km/h 91 % 0 mm 0 W/m2
01:16 7.3 °C 5.9 °C 1037.1 hPa Calm   -1607.7 km/h 91 % 0 mm 0 W/m2
01:20 7.3 °C 5.9 °C 1037.1 hPa NW 1.6 km/h 1.6 km/h 91 % 0 mm 0 W/m2
01:21 7.3 °C 5.9 °C 1037.1 hPa Calm   -1607.7 km/h 91 % 0 mm 0 W/m2
01:25 7.3 °C 5.9 °C 1037.1 hPa NW 1.6 km/h 14.5 km/h 91 % 0 mm 0 W/m2
01:26 7.3 °C 5.9 °C 1037.1 hPa Calm   -1607.7 km/h 91 % 0 mm 0 W/m2
01:30 7.3 °C 5.9 °C 1037.1 hPa Calm   14.5 km/h 91 % 0 mm 0 W/m2
01:31 7.3 °C 5.9 °C 1037.1 hPa Calm   -1607.7 km/h 91 % 0 mm 0 W/m2
01:35 7.3 °C 5.9 °C 1037.1 hPa Calm   14.5 km/h 91 % 0 mm 0 W/m2
01:36 7.3 °C 5.9 °C 1037.1 hPa Calm   -1607.7 km/h 91 % 0 mm 0 W/m2
01:41 7.2 °C 5.8 °C 1037.1 hPa NW 1.6 km/h -1607.7 km/h 91 % 0 mm 0 W/m2
01:45 7.3 °C 5.9 °C 1037.1 hPa NW 1.6 km/h 14.5 km/h 91 % 0 mm 0 W/m2
01:46 7.2 °C 5.8 °C 1037.1 hPa NW 1.6 km/h -1607.7 km/h 91 % 0 mm 0 W/m2
01:50 7.3 °C 6.1 °C 1037.1 hPa WNW 3.2 km/h 14.5 km/h 92 % 0 mm 0 W/m2
01:51 7.2 °C 5.8 °C 1037.1 hPa NW 1.6 km/h -1607.7 km/h 91 % 0 mm 0 W/m2
01:55 7.3 °C 6.1 °C 1037.1 hPa WNW 4.8 km/h 14.5 km/h 92 % 0 mm 0 W/m2
01:56 7.3 °C 6.1 °C 1037.1 hPa WNW 3.2 km/h -1607.7 km/h 92 % 0 mm 0 W/m2
02:00 7.3 °C 6.1 °C 1037.1 hPa WNW 3.2 km/h 3.2 km/h 92 % 0 mm 0 W/m2
02:01 7.3 °C 6.1 °C 1037.1 hPa WNW 3.2 km/h -1607.7 km/h 92 % 0 mm 0 W/m2
02:05 7.3 °C 5.9 °C 1037.1 hPa WNW 3.2 km/h 14.5 km/h 91 % 0 mm 0 W/m2
02:06 7.3 °C 6.1 °C 1037.1 hPa WNW 3.2 km/h -1607.7 km/h 92 % 0 mm 0 W/m2
02:10 7.3 °C 5.9 °C 1037.1 hPa WNW 3.2 km/h 3.2 km/h 91 % 0 mm 0 W/m2
02:11 7.3 °C 5.9 °C 1037.1 hPa WNW 1.6 km/h -1607.7 km/h 91 % 0 mm 0 W/m2
02:15 7.3 °C 5.9 °C 1037.1 hPa Calm   14.5 km/h 91 % 0 mm 0 W/m2
02:16 7.3 °C 5.9 °C 1037.1 hPa WNW 1.6 km/h -1607.7 km/h 91 % 0 mm 0 W/m2
02:20 7.3 °C 5.9 °C 1036.8 hPa Calm   14.5 km/h 91 % 0 mm 0 W/m2
02:21 7.3 °C 5.9 °C 1037.1 hPa WNW 1.6 km/h -1607.7 km/h 91 % 0 mm 0 W/m2
02:26 7.3 °C 6.1 °C 1037.1 hPa Calm   -1607.7 km/h 92 % 0 mm 0 W/m2
02:30 7.2 °C 5.8 °C 1037.1 hPa Calm   14.5 km/h 91 % 0 mm 0 W/m2
02:31 7.3 °C 6.1 °C 1037.1 hPa Calm   -1607.7 km/h 92 % 0 mm 0 W/m2
02:35 7.3 °C 5.9 °C 1037.1 hPa Calm   14.5 km/h 91 % 0 mm 0 W/m2
02:36 7.3 °C 6.1 °C 1037.1 hPa Calm   -1607.7 km/h 92 % 0 mm 0 W/m2
02:40 7.2 °C 6 °C 1036.8 hPa Calm   14.5 km/h 92 % 0 mm 0 W/m2
02:41 7.2 °C 6 °C 1037.1 hPa Calm   -1607.7 km/h 92 % 0 mm 0 W/m2
02:45 7.2 °C 6 °C 1037.1 hPa Calm   14.5 km/h 92 % 0 mm 0 W/m2
02:46 7.2 °C 6 °C 1037.1 hPa Calm   -1607.7 km/h 92 % 0 mm 0 W/m2
02:50 7.2 °C 6 °C 1036.8 hPa Calm   14.5 km/h 92 % 0 mm 0 W/m2
02:51 7.2 °C 6 °C 1037.1 hPa Calm   -1607.7 km/h 92 % 0 mm 0 W/m2
02:55 7.2 °C 5.9 °C 1036.8 hPa Calm   14.5 km/h 92 % 0 mm 0 W/m2
02:56 7.2 °C 5.9 °C 1036.8 hPa Calm   -1607.7 km/h 92 % 0 mm 0 W/m2
03:00 7.2 °C 5.9 °C 1036.8 hPa Calm   14.5 km/h 92 % 0 mm 0 W/m2
03:01 7.2 °C 5.9 °C 1036.8 hPa Calm   -1607.7 km/h 92 % 0 mm 0 W/m2
03:06 7.2 °C 5.9 °C 1036.8 hPa Calm   -1607.7 km/h 92 % 0 mm 0 W/m2
03:10 7.1 °C 5.9 °C 1036.8 hPa Calm   14.5 km/h 92 % 0 mm 0 W/m2
03:11 7.1 °C 5.9 °C 1036.8 hPa Calm   -1607.7 km/h 92 % 0 mm 0 W/m2
03:15 7.1 °C 5.9 °C 1036.8 hPa Calm   14.5 km/h 92 % 0 mm 0 W/m2
03:16 7.1 °C 5.9 °C 1036.8 hPa Calm   -1607.7 km/h 92 % 0 mm 0 W/m2
03:20 7.1 °C 5.8 °C 1036.8 hPa Calm   14.5 km/h 92 % 0 mm 0 W/m2
03:21 7.1 °C 5.9 °C 1036.8 hPa Calm   -1607.7 km/h 92 % 0 mm 0 W/m2
03:25 7.1 °C 6 °C 1036.8 hPa Calm   14.5 km/h 93 % 0 mm 0 W/m2
03:26 7.1 °C 6.1 °C 1036.8 hPa Calm   -1607.7 km/h 93 % 0 mm 0 W/m2
03:30 7.1 °C 6 °C 1036.8 hPa Calm   14.5 km/h 93 % 0 mm 0 W/m2
03:31 7.1 °C 6.1 °C 1036.8 hPa Calm   -1607.7 km/h 93 % 0 mm 0 W/m2
03:35 7.1 °C 6.1 °C 1036.8 hPa Calm   14.5 km/h 93 % 0 mm 0 W/m2
03:36 7.1 °C 6.1 °C 1036.8 hPa Calm   -1607.7 km/h 93 % 0 mm 0 W/m2
03:41 7.1 °C 6 °C 1036.8 hPa Calm   -1607.7 km/h 93 % 0 mm 0 W/m2
03:45 7.1 °C 6 °C 1036.8 hPa Calm   14.5 km/h 93 % 0 mm 0 W/m2
03:46 7.1 °C 6 °C 1036.8 hPa Calm   -1607.7 km/h 93 % 0 mm 0 W/m2
03:50 7.1 °C 6.1 °C 1036.8 hPa WNW 1.6 km/h 14.5 km/h 93 % 0 mm 0 W/m2
03:51 7.1 °C 6 °C 1036.8 hPa Calm   -1607.7 km/h 93 % 0 mm 0 W/m2
03:55 7.1 °C 6 °C 1036.8 hPa WNW 3.2 km/h 14.5 km/h 93 % 0 mm 0 W/m2
03:56 7.1 °C 6 °C 1036.8 hPa WNW 1.6 km/h -1607.7 km/h 93 % 0 mm 0 W/m2
04:00 7.1 °C 6.1 °C 1036.8 hPa WNW 1.6 km/h 1.6 km/h 93 % 0 mm 0 W/m2
04:01 7.1 °C 6 °C 1036.8 hPa WNW 1.6 km/h -1607.7 km/h 93 % 0 mm 0 W/m2
04:05 7.1 °C 6.1 °C 1036.8 hPa Calm   14.5 km/h 93 % 0 mm 0 W/m2
04:06 7.1 °C 6 °C 1036.8 hPa WNW 1.6 km/h -1607.7 km/h 93 % 0 mm 0 W/m2
04:10 7.1 °C 6.1 °C 1036.8 hPa Calm   14.5 km/h 93 % 0 mm 0 W/m2
04:11 7.1 °C 6.1 °C 1036.8 hPa Calm   -1607.7 km/h 93 % 0 mm 0 W/m2
04:15 7.1 °C 6 °C 1036.8 hPa Calm   14.5 km/h 93 % 0 mm 0 W/m2
04:16 7.1 °C 6.1 °C 1036.8 hPa Calm   -1607.7 km/h 93 % 0 mm 0 W/m2
04:21 7.1 °C 6.1 °C 1036.8 hPa Calm   -1607.7 km/h 93 % 0 mm 0 W/m2
04:25 7.1 °C 6 °C 1036.8 hPa Calm   14.5 km/h 93 % 0 mm 0 W/m2
04:26 7.1 °C 6 °C 1036.8 hPa Calm   -1607.7 km/h 93 % 0 mm 0 W/m2
04:30 7.1 °C 6 °C 1036.8 hPa Calm   14.5 km/h 93 % 0 mm 0 W/m2
04:31 7.1 °C 6 °C 1036.8 hPa Calm   -1607.7 km/h 93 % 0 mm 0 W/m2
04:35 7.1 °C 6 °C 1036.8 hPa Calm   14.5 km/h 93 % 0 mm 0 W/m2
04:36 7.1 °C 6 °C 1036.8 hPa Calm   -1607.7 km/h 93 % 0 mm 0 W/m2
04:40 7.1 °C 6 °C 1036.8 hPa Calm   14.5 km/h 93 % 0 mm 0 W/m2
04:41 7.1 °C 6 °C 1036.5 hPa Calm   -1607.7 km/h 93 % 0 mm 0 W/m2
04:45 7.1 °C 6 °C 1036.5 hPa Calm   14.5 km/h 93 % 0 mm 0 W/m2
04:46 7.1 °C 6 °C 1036.5 hPa Calm   -1607.7 km/h 93 % 0 mm 0 W/m2
04:50 7.1 °C 6 °C 1036.5 hPa West 1.6 km/h 14.5 km/h 93 % 0 mm 0 W/m2
04:51 7.1 °C 6 °C 1036.5 hPa Calm   -1607.7 km/h 93 % 0 mm 0 W/m2
04:55 7.1 °C 6.1 °C 1036.5 hPa WNW 3.2 km/h 14.5 km/h 93 % 0 mm 0 W/m2
04:56 7.1 °C 6 °C 1036.5 hPa WNW 3.2 km/h -1607.7 km/h 93 % 0 mm 0 W/m2
05:01 7.1 °C 6 °C 1036.5 hPa WNW 3.2 km/h -1607.7 km/h 93 % 0 mm 0 W/m2
05:05 7.1 °C 6.1 °C 1036.5 hPa West 4.8 km/h 14.5 km/h 93 % 0 mm 0 W/m2
05:06 7.1 °C 6 °C 1036.5 hPa WNW 3.2 km/h -1607.7 km/h 93 % 0 mm 0 W/m2
05:10 7.1 °C 6.1 °C 1036.5 hPa West 3.2 km/h 14.5 km/h 93 % 0 mm 0 W/m2
05:11 7.1 °C 6.1 °C 1036.5 hPa West 3.2 km/h -1607.7 km/h 93 % 0 mm 0 W/m2
05:15 7.1 °C 6.1 °C 1036.5 hPa WNW 1.6 km/h 14.5 km/h 93 % 0 mm 0 W/m2
05:16 7.1 °C 6.1 °C 1036.5 hPa West 3.2 km/h -1607.7 km/h 93 % 0 mm 0 W/m2
05:20 7.1 °C 6.1 °C 1036.5 hPa WNW 1.6 km/h 14.5 km/h 93 % 0 mm 0 W/m2
05:21 7.1 °C 6.1 °C 1036.5 hPa West 3.2 km/h -1607.7 km/h 93 % 0 mm 0 W/m2
05:25 7.1 °C 6.1 °C 1036.5 hPa WNW 3.2 km/h 14.5 km/h 93 % 0 mm 0 W/m2
05:26 7.1 °C 6.1 °C 1036.5 hPa WNW 1.6 km/h -1607.7 km/h 93 % 0 mm 0 W/m2
05:30 7.1 °C 6.1 °C 1036.5 hPa WNW 1.6 km/h 1.6 km/h 93 % 0 mm 0 W/m2
05:31 7.1 °C 6.1 °C 1036.5 hPa WNW 1.6 km/h -1607.7 km/h 93 % 0 mm 0 W/m2
05:36 7.1 °C 6.1 °C 1036.5 hPa WNW 1.6 km/h -1607.7 km/h 93 % 0 mm 0 W/m2
05:40 7.1 °C 6.1 °C 1036.5 hPa West 1.6 km/h 14.5 km/h 93 % 0 mm 0 W/m2
05:41 7.1 °C 6.1 °C 1036.5 hPa West 3.2 km/h -1607.7 km/h 93 % 0 mm 0 W/m2
05:45 7.1 °C 6.1 °C 1036.5 hPa West 3.2 km/h 14.5 km/h 93 % 0 mm 0 W/m2
05:46 7.1 °C 6.1 °C 1036.5 hPa West 3.2 km/h -1607.7 km/h 93 % 0 mm 0 W/m2
05:50 7.1 °C 6 °C 1036.5 hPa West 3.2 km/h 3.2 km/h 93 % 0 mm 0 W/m2
05:51 7.1 °C 6.1 °C 1036.5 hPa West 3.2 km/h -1607.7 km/h 93 % 0 mm 0 W/m2
05:55 7.1 °C 6 °C 1036.5 hPa West 1.6 km/h 4.8 km/h 93 % 0 mm 0 W/m2
05:56 7.1 °C 6 °C 1036.5 hPa West 1.6 km/h -1607.7 km/h 93 % 0 mm 0 W/m2
06:00 7.1 °C 6 °C 1036.5 hPa West 1.6 km/h 1.6 km/h 93 % 0 mm 0 W/m2
06:01 7.1 °C 6 °C 1036.5 hPa West 1.6 km/h -1607.7 km/h 93 % 0 mm 0 W/m2
06:05 7.1 °C 6 °C 1036.5 hPa Calm   14.5 km/h 93 % 0 mm 0 W/m2
06:06 7.1 °C 6 °C 1036.5 hPa West 1.6 km/h -1607.7 km/h 93 % 0 mm 0 W/m2
06:10 7.1 °C 6 °C 1036.5 hPa Calm   14.5 km/h 93 % 0 mm 0 W/m2
06:11 7.1 °C 6 °C 1036.5 hPa Calm   -1607.7 km/h 93 % 0 mm 0 W/m2
06:16 7.1 °C 6 °C 1036.5 hPa Calm   -1607.7 km/h 93 % 0 mm 0 W/m2
06:20 7 °C 5.9 °C 1036.5 hPa Calm   14.5 km/h 93 % 0 mm 0 W/m2
06:21 7.1 °C 6 °C 1036.5 hPa Calm   -1607.7 km/h 93 % 0 mm 0 W/m2
06:25 7 °C 5.9 °C 1036.5 hPa Calm   14.5 km/h 93 % 0 mm 0 W/m2
06:26 7 °C 5.9 °C 1036.8 hPa Calm   -1607.7 km/h 93 % 0 mm 0 W/m2
06:30 7 °C 5.9 °C 1036.8 hPa Calm   14.5 km/h 93 % 0 mm 0 W/m2
06:31 7 °C 5.9 °C 1036.8 hPa Calm   -1607.7 km/h 93 % 0 mm 0 W/m2
06:35 7 °C 6.1 °C 1036.8 hPa Calm   14.5 km/h 94 % 0 mm 0 W/m2
06:36 7 °C 5.9 °C 1036.8 hPa Calm   -1607.7 km/h 93 % 0 mm 0 W/m2
06:40 7 °C 5.9 °C 1036.8 hPa Calm   14.5 km/h 93 % 0 mm 0 W/m2
06:41 7 °C 5.9 °C 1036.8 hPa Calm   -1607.7 km/h 93 % 0 mm 0 W/m2
06:45 6.9 °C 5.9 °C 1036.8 hPa Calm   14.5 km/h 93 % 0 mm 0 W/m2
06:46 7 °C 5.9 °C 1036.8 hPa Calm   -1607.7 km/h 93 % 0 mm 0 W/m2
06:51 7 °C 5.9 °C 1036.8 hPa Calm   -1607.7 km/h 93 % 0 mm 0 W/m2
06:55 6.9 °C 6.1 °C 1036.8 hPa Calm   14.5 km/h 94 % 0 mm 0 W/m2
06:56 6.9 °C 6.1 °C 1036.8 hPa Calm   -1607.7 km/h 94 % 0 mm 0 W/m2
07:00 6.9 °C 6.1 °C 1036.8 hPa Calm   14.5 km/h 94 % 0 mm 0 W/m2
07:01 6.9 °C 6.1 °C 1036.8 hPa Calm   -1607.7 km/h 94 % 0 mm 0 W/m2
07:05 6.9 °C 6 °C 1036.8 hPa Calm   14.5 km/h 94 % 0 mm 0 W/m2
07:06 6.9 °C 6.1 °C 1036.8 hPa Calm   -1607.7 km/h 94 % 0 mm 0 W/m2
07:10 6.9 °C 6 °C 1036.8 hPa Calm   14.5 km/h 94 % 0 mm 0 W/m2
07:11 6.9 °C 6 °C 1036.8 hPa Calm   -1607.7 km/h 94 % 0 mm 0 W/m2
07:15 6.9 °C 6 °C 1036.8 hPa Calm   14.5 km/h 94 % 0 mm 0 W/m2
07:16 6.9 °C 6 °C 1036.8 hPa Calm   -1607.7 km/h 94 % 0 mm 0 W/m2
07:20 6.8 °C 5.9 °C 1036.8 hPa Calm   14.5 km/h 94 % 0 mm 0 W/m2
07:21 6.9 °C 6 °C 1036.8 hPa Calm   -1607.7 km/h 94 % 0 mm 0 W/m2
07:26 6.8 °C 5.8 °C 1037.1 hPa West 1.6 km/h -1607.7 km/h 93 % 0 mm 0 W/m2
07:30 6.8 °C 5.8 °C 1037.1 hPa West 1.6 km/h 1.6 km/h 93 % 0 mm 0 W/m2
07:31 6.8 °C 5.8 °C 1037.1 hPa West 1.6 km/h -1607.7 km/h 93 % 0 mm 0 W/m2
07:36 6.8 °C 5.8 °C 1037.1 hPa West 1.6 km/h -1607.7 km/h 93 % 0 mm 0 W/m2
07:40 6.8 °C 5.7 °C 1037.1 hPa NW 3.2 km/h 14.5 km/h 93 % 0 mm 0 W/m2
07:41 6.8 °C 5.8 °C 1037.1 hPa West 1.6 km/h -1607.7 km/h 93 % 0 mm 0 W/m2
07:45 6.8 °C 5.8 °C 1037.1 hPa NW 1.6 km/h 14.5 km/h 93 % 0 mm 0 W/m2
07:46 6.8 °C 5.8 °C 1037.1 hPa West 1.6 km/h -1607.7 km/h 93 % 0 mm 0 W/m2
07:50 6.9 °C 5.8 °C 1037.1 hPa Calm   14.5 km/h 93 % 0 mm 0 W/m2
07:51 6.8 °C 5.8 °C 1037.1 hPa West 1.6 km/h -1607.7 km/h 93 % 0 mm 0 W/m2
07:55 6.9 °C 5.8 °C 1037.1 hPa Calm   14.5 km/h 93 % 0 mm 0 W/m2
07:56 6.9 °C 5.8 °C 1037.5 hPa Calm   -1607.7 km/h 93 % 0 mm 0 W/m2
08:00 6.9 °C 5.8 °C 1037.5 hPa Calm   14.5 km/h 93 % 0 mm 0 W/m2
08:01 6.9 °C 5.8 °C 1037.5 hPa Calm   -1607.7 km/h 93 % 0 mm 0 W/m2
08:05 6.9 °C 5.8 °C 1037.1 hPa Calm   14.5 km/h 93 % 0 mm 0 W/m2
08:06 6.9 °C 5.8 °C 1037.5 hPa Calm   -1607.7 km/h 93 % 0 mm 0 W/m2
08:11 6.9 °C 5.8 °C 1037.5 hPa Calm   -1607.7 km/h 93 % 0 mm 0 W/m2
08:15 6.9 °C 5.8 °C 1037.5 hPa Calm   14.5 km/h 93 % 0 mm 0 W/m2
08:16 6.9 °C 5.8 °C 1037.5 hPa Calm   -1607.7 km/h 93 % 0 mm 0 W/m2
08:20 6.9 °C 5.8 °C 1037.5 hPa Calm   14.5 km/h 93 % 0 mm 0 W/m2
08:21 6.9 °C 5.8 °C 1037.5 hPa Calm   -1607.7 km/h 93 % 0 mm 0 W/m2
08:25 6.9 °C 5.8 °C 1037.5 hPa Calm   14.5 km/h 93 % 0 mm 0 W/m2
08:26 6.9 °C 5.8 °C 1037.5 hPa Calm   -1607.7 km/h 93 % 0 mm 0 W/m2
08:30 6.9 °C 5.8 °C 1037.5 hPa Calm   14.5 km/h 93 % 0 mm 0 W/m2
08:31 6.9 °C 5.8 °C 1037.5 hPa Calm   -1607.7 km/h 93 % 0 mm 0 W/m2
08:35 6.9 °C 5.8 °C 1037.5 hPa Calm   14.5 km/h 93 % 0 mm 0 W/m2
08:36 6.9 °C 5.8 °C 1037.5 hPa Calm   -1607.7 km/h 93 % 0 mm 0 W/m2
08:41 6.9 °C 5.8 °C 1037.5 hPa Calm   -1607.7 km/h 93 % 0 mm 2 W/m2
08:45 6.9 °C 5.8 °C 1037.5 hPa Calm   14.5 km/h 93 % 0 mm 5 W/m2
08:46 6.9 °C 5.8 °C 1037.5 hPa Calm   -1607.7 km/h 93 % 0 mm 2 W/m2
08:51 6.9 °C 5.8 °C 1037.5 hPa Calm   -1607.7 km/h 93 % 0 mm 2 W/m2
08:55 6.8 °C 5.8 °C 1037.5 hPa Calm   14.5 km/h 93 % 0 mm 5 W/m2
08:56 6.9 °C 5.8 °C 1037.5 hPa Calm   -1607.7 km/h 93 % 0 mm 5 W/m2
09:00 6.8 °C 5.8 °C 1037.5 hPa Calm   14.5 km/h 93 % 0 mm 7 W/m2
09:01 6.9 °C 5.8 °C 1037.5 hPa Calm   -1607.7 km/h 93 % 0 mm 5 W/m2
09:05 6.8 °C 5.8 °C 1037.5 hPa Calm   14.5 km/h 93 % 0 mm 7 W/m2
09:06 6.9 °C 5.8 °C 1037.5 hPa Calm   -1607.7 km/h 93 % 0 mm 5 W/m2
09:10 6.8 °C 5.8 °C 1037.8 hPa Calm   14.5 km/h 93 % 0 mm 9 W/m2
09:11 6.8 °C 5.8 °C 1037.5 hPa Calm   -1607.7 km/h 93 % 0 mm 8 W/m2
09:15 6.8 °C 5.8 °C 1037.5 hPa Calm   14.5 km/h 93 % 0 mm 9 W/m2
09:16 6.8 °C 5.8 °C 1037.5 hPa Calm   -1607.7 km/h 93 % 0 mm 8 W/m2
09:20 6.8 °C 5.8 °C 1037.8 hPa Calm   14.5 km/h 93 % 0 mm 11 W/m2
09:21 6.8 °C 5.8 °C 1037.5 hPa Calm   -1607.7 km/h 93 % 0 mm 8 W/m2
09:25 6.8 °C 5.8 °C 1037.5 hPa Calm   14.5 km/h 93 % 0 mm 11 W/m2
09:26 6.8 °C 5.8 °C 1037.5 hPa Calm   -1607.7 km/h 93 % 0 mm 11 W/m2
09:31 6.8 °C 5.8 °C 1037.5 hPa Calm   -1607.7 km/h 93 % 0 mm 11 W/m2
09:35 6.9 °C 5.8 °C 1037.5 hPa Calm   14.5 km/h 93 % 0 mm 12 W/m2
09:36 6.8 °C 5.8 °C 1037.5 hPa Calm   -1607.7 km/h 93 % 0 mm 11 W/m2
09:40 6.8 °C 5.8 °C 1037.5 hPa Calm   14.5 km/h 93 % 0 mm 14 W/m2
09:41 6.9 °C 5.8 °C 1037.5 hPa Calm   -1607.7 km/h 93 % 0 mm 13 W/m2
09:46 6.9 °C 5.8 °C 1037.5 hPa Calm   -1607.7 km/h 93 % 0 mm 13 W/m2
09:50 6.9 °C 5.8 °C 1037.5 hPa Calm   14.5 km/h 93 % 0 mm 14 W/m2
09:51 6.9 °C 5.8 °C 1037.5 hPa Calm   -1607.7 km/h 93 % 0 mm 13 W/m2
09:55 6.9 °C 5.7 °C 1037.5 hPa Calm   14.5 km/h 92 % 0 mm 16 W/m2
09:56 6.9 °C 5.7 °C 1037.5 hPa Calm   -1607.7 km/h 92 % 0 mm 16 W/m2
10:00 6.9 °C 5.7 °C 1037.5 hPa Calm   14.5 km/h 92 % 0 mm 18 W/m2
10:01 6.9 °C 5.7 °C 1037.5 hPa Calm   -1607.7 km/h 92 % 0 mm 16 W/m2
10:05 7 °C 5.8 °C 1037.5 hPa Calm   14.5 km/h 92 % 0 mm 16 W/m2
10:06 6.9 °C 5.7 °C 1037.5 hPa Calm   -1607.7 km/h 92 % 0 mm 16 W/m2
10:10 7 °C 5.8 °C 1037.5 hPa Calm   14.5 km/h 92 % 0 mm 18 W/m2
10:11 7 °C 5.8 °C 1037.5 hPa Calm   -1607.7 km/h 92 % 0 mm 18 W/m2
10:15 7.1 °C 5.8 °C 1037.5 hPa Calm   14.5 km/h 92 % 0 mm 18 W/m2
10:16 7 °C 5.8 °C 1037.5 hPa Calm   -1607.7 km/h 92 % 0 mm 18 W/m2
10:20 7.1 °C 5.9 °C 1037.5 hPa Calm   14.5 km/h 92 % 0 mm 18 W/m2
10:21 7 °C 5.8 °C 1037.5 hPa Calm   -1607.7 km/h 92 % 0 mm 18 W/m2
10:25 7.1 °C 5.9 °C 1037.5 hPa Calm   14.5 km/h 92 % 0 mm 19 W/m2
10:26 7.1 °C 5.9 °C 1037.8 hPa Calm   -1607.7 km/h 92 % 0 mm 19 W/m2
10:31 7.1 °C 5.9 °C 1037.8 hPa Calm   -1607.7 km/h 92 % 0 mm 19 W/m2
10:35 7.2 °C 5.8 °C 1037.5 hPa Calm   14.5 km/h 91 % 0 mm 21 W/m2
10:36 7.1 °C 5.9 °C 1037.8 hPa Calm   -1607.7 km/h 92 % 0 mm 19 W/m2
10:40 7.2 °C 5.8 °C 1037.5 hPa NW 3.2 km/h 14.5 km/h 91 % 0 mm 21 W/m2
10:41 7.2 °C 5.8 °C 1037.5 hPa NW 1.6 km/h -1607.7 km/h 91 % 0 mm 21 W/m2
10:45 7.2 °C 5.8 °C 1037.5 hPa NW 1.6 km/h 14.5 km/h 91 % 0 mm 23 W/m2
10:46 7.2 °C 5.8 °C 1037.5 hPa NW 1.6 km/h -1607.7 km/h 91 % 0 mm 21 W/m2
10:50 7.3 °C 5.9 °C 1037.8 hPa NW 1.6 km/h 1.6 km/h 91 % 0 mm 21 W/m2
10:51 7.2 °C 5.8 °C 1037.5 hPa NW 1.6 km/h -1607.7 km/h 91 % 0 mm 21 W/m2
10:55 7.3 °C 5.9 °C 1037.5 hPa Calm   14.5 km/h 91 % 0 mm 25 W/m2
10:56 7.3 °C 5.9 °C 1037.8 hPa Calm   -1607.7 km/h 91 % 0 mm 23 W/m2
11:00 7.4 °C 6 °C 1037.8 hPa Calm   14.5 km/h 91 % 0 mm 25 W/m2
11:01 7.3 °C 5.9 °C 1037.8 hPa Calm   -1607.7 km/h 91 % 0 mm 23 W/m2
11:05 7.4 °C 6 °C 1037.5 hPa Calm   14.5 km/h 91 % 0 mm 25 W/m2
11:06 7.3 °C 5.9 °C 1037.8 hPa Calm   -1607.7 km/h 91 % 0 mm 23 W/m2
11:11 7.4 °C 6 °C 1037.5 hPa Calm   -1607.7 km/h 91 % 0 mm 25 W/m2
11:15 7.4 °C 6.1 °C 1037.5 hPa Calm   14.5 km/h 91 % 0 mm 25 W/m2
11:16 7.4 °C 6 °C 1037.5 hPa Calm   -1607.7 km/h 91 % 0 mm 25 W/m2
11:20 7.4 °C 6.1 °C 1037.5 hPa Calm   14.5 km/h 91 % 0 mm 25 W/m2
11:21 7.4 °C 6 °C 1037.5 hPa Calm   -1607.7 km/h 91 % 0 mm 25 W/m2
11:25 7.4 °C 6.1 °C 1037.5 hPa Calm   14.5 km/h 91 % 0 mm 26 W/m2
11:26 7.4 °C 6.1 °C 1037.5 hPa Calm   -1607.7 km/h 91 % 0 mm 26 W/m2
11:30 7.5 °C 6.1 °C 1037.5 hPa Calm   14.5 km/h 91 % 0 mm 26 W/m2
11:31 7.4 °C 6.1 °C 1037.5 hPa Calm   -1607.7 km/h 91 % 0 mm 26 W/m2
11:35 7.5 °C 6.1 °C 1037.5 hPa Calm   14.5 km/h 91 % 0 mm 26 W/m2
11:36 7.4 °C 6.1 °C 1037.5 hPa Calm   -1607.7 km/h 91 % 0 mm 26 W/m2
11:40 7.5 °C 6.1 °C 1037.5 hPa Calm   14.5 km/h 91 % 0 mm 28 W/m2
11:41 7.5 °C 6.1 °C 1037.5 hPa Calm   -1607.7 km/h 91 % 0 mm 27 W/m2
11:45 7.6 °C 6.2 °C 1037.5 hPa Calm   14.5 km/h 91 % 0 mm 26 W/m2
11:46 7.5 °C 6.1 °C 1037.5 hPa Calm   -1607.7 km/h 91 % 0 mm 27 W/m2
11:51 7.5 °C 6.1 °C 1037.5 hPa Calm   -1607.7 km/h 91 % 0 mm 27 W/m2
11:55 7.6 °C 6.2 °C 1037.5 hPa Calm   14.5 km/h 91 % 0 mm 26 W/m2
11:56 7.6 °C 6 °C 1037.5 hPa Calm   -1607.7 km/h 90 % 0 mm 26 W/m2
12:00 7.6 °C 6 °C 1037.5 hPa Calm   14.5 km/h 90 % 0 mm 28 W/m2
12:01 7.6 °C 6 °C 1037.5 hPa Calm   -1607.7 km/h 90 % 0 mm 26 W/m2
12:05 7.6 °C 6 °C 1037.5 hPa Calm   14.5 km/h 90 % 0 mm 26 W/m2
12:06 7.6 °C 6 °C 1037.5 hPa Calm   -1607.7 km/h 90 % 0 mm 26 W/m2
12:10 7.6 °C 6.1 °C 1037.1 hPa Calm   14.5 km/h 90 % 0 mm 28 W/m2
12:11 7.6 °C 6.1 °C 1037.1 hPa Calm   -1607.7 km/h 90 % 0 mm 27 W/m2
12:15 7.6 °C 6.1 °C 1037.1 hPa Calm   14.5 km/h 90 % 0 mm 28 W/m2
12:16 7.6 °C 6.1 °C 1037.1 hPa Calm   -1607.7 km/h 90 % 0 mm 27 W/m2
12:20 7.7 °C 6.1 °C 1037.1 hPa Calm   14.5 km/h 90 % 0 mm 28 W/m2
12:21 7.6 °C 6.1 °C 1037.1 hPa Calm   -1607.7 km/h 90 % 0 mm 27 W/m2
12:25 7.7 °C 6.1 °C 1037.1 hPa Calm   14.5 km/h 90 % 0 mm 28 W/m2
12:26 7.7 °C 6.1 °C 1037.1 hPa Calm   -1607.7 km/h 90 % 0 mm 28 W/m2
12:31 7.7 °C 6.1 °C 1037.1 hPa Calm   -1607.7 km/h 90 % 0 mm 28 W/m2
12:35 7.7 °C 6.2 °C 1037.1 hPa Calm   14.5 km/h 90 % 0 mm 28 W/m2
12:36 7.7 °C 6.1 °C 1037.1 hPa Calm   -1607.7 km/h 90 % 0 mm 28 W/m2
12:40 7.7 °C 6.2 °C 1036.8 hPa Calm   14.5 km/h 90 % 0 mm 26 W/m2
12:41 7.7 °C 6 °C 1036.8 hPa NW 1.6 km/h -1607.7 km/h 89 % 0 mm 28 W/m2
12:45 7.7 °C 6 °C 1036.8 hPa NW 1.6 km/h 14.5 km/h 89 % 0 mm 30 W/m2
12:46 7.7 °C 6 °C 1036.8 hPa NW 1.6 km/h -1607.7 km/h 89 % 0 mm 28 W/m2
12:50 7.7 °C 6 °C 1036.8 hPa NW 1.6 km/h 1.6 km/h 89 % 0 mm 28 W/m2
12:51 7.7 °C 6 °C 1036.8 hPa NW 1.6 km/h -1607.7 km/h 89 % 0 mm 28 W/m2
12:55 7.7 °C 6 °C 1036.8 hPa NW 3.2 km/h 6.4 km/h 89 % 0 mm 28 W/m2
12:56 7.7 °C 6 °C 1036.8 hPa NW 3.2 km/h -1607.7 km/h 89 % 0 mm 29 W/m2
13:00 7.7 °C 6 °C 1036.8 hPa NW 4.8 km/h 14.5 km/h 89 % 0 mm 28 W/m2
13:01 7.7 °C 6 °C 1036.8 hPa NW 3.2 km/h -1607.7 km/h 89 % 0 mm 29 W/m2
13:05 7.7 °C 6 °C 1036.8 hPa NW 3.2 km/h 14.5 km/h 89 % 0 mm 26 W/m2
13:06 7.7 °C 6 °C 1036.8 hPa NW 3.2 km/h -1607.7 km/h 89 % 0 mm 29 W/m2
13:10 7.7 °C 6 °C 1036.8 hPa NW 1.6 km/h 14.5 km/h 89 % 0 mm 28 W/m2
13:11 7.7 °C 6 °C 1036.8 hPa NW 1.6 km/h -1607.7 km/h 89 % 0 mm 27 W/m2
13:16 7.7 °C 6 °C 1036.8 hPa NW 1.6 km/h -1607.7 km/h 89 % 0 mm 27 W/m2
13:20 7.8 °C 6.1 °C 1036.8 hPa Calm   14.5 km/h 89 % 0 mm 25 W/m2
13:21 7.7 °C 6 °C 1036.8 hPa NW 1.6 km/h -1607.7 km/h 89 % 0 mm 27 W/m2
13:25 7.8 °C 6.1 °C 1036.8 hPa NW 1.6 km/h 14.5 km/h 89 % 0 mm 25 W/m2
13:26 7.8 °C 6.1 °C 1036.5 hPa NW 1.6 km/h -1607.7 km/h 89 % 0 mm 24 W/m2
13:30 7.8 °C 6.1 °C 1036.5 hPa NW 1.6 km/h 1.6 km/h 89 % 0 mm 23 W/m2
13:31 7.8 °C 6.1 °C 1036.5 hPa NW 1.6 km/h -1607.7 km/h 89 % 0 mm 24 W/m2
13:35 7.8 °C 6.1 °C 1036.5 hPa NW 1.6 km/h 14.5 km/h 89 % 0 mm 25 W/m2
13:36 7.8 °C 6.1 °C 1036.5 hPa NW 1.6 km/h -1607.7 km/h 89 % 0 mm 24 W/m2
13:40 7.8 °C 6.1 °C 1036.5 hPa NW 1.6 km/h 14.5 km/h 89 % 0 mm 25 W/m2
13:41 7.8 °C 6.1 °C 1036.5 hPa NW 1.6 km/h -1607.7 km/h 89 % 0 mm 25 W/m2
13:45 7.8 °C 6.1 °C 1036.5 hPa Calm   14.5 km/h 89 % 0 mm 26 W/m2
13:46 7.8 °C 6.1 °C 1036.5 hPa NW 1.6 km/h -1607.7 km/h 89 % 0 mm 25 W/m2
13:51 7.8 °C 6.1 °C 1036.5 hPa NW 1.6 km/h -1607.7 km/h 89 % 0 mm 25 W/m2
13:55 7.8 °C 5.9 °C 1036.1 hPa NW 3.2 km/h 4.8 km/h 88 % 0 mm 23 W/m2
13:56 7.8 °C 6.1 °C 1036.1 hPa NW 3.2 km/h -1607.7 km/h 89 % 0 mm 23 W/m2
14:00 7.7 °C 6 °C 1036.1 hPa NW 3.2 km/h 14.5 km/h 89 % 0 mm 21 W/m2
14:01 7.8 °C 6.1 °C 1036.1 hPa NW 3.2 km/h -1607.7 km/h 89 % 0 mm 23 W/m2
14:05 7.8 °C 6.1 °C 1036.1 hPa NW 1.6 km/h 14.5 km/h 89 % 0 mm 21 W/m2
14:06 7.8 °C 6.1 °C 1036.1 hPa NW 3.2 km/h -1607.7 km/h 89 % 0 mm 23 W/m2
14:10 7.8 °C 6.1 °C 1036.1 hPa NW 1.6 km/h 14.5 km/h 89 % 0 mm 19 W/m2
14:11 7.8 °C 5.9 °C 1036.1 hPa NW 1.6 km/h -1607.7 km/h 88 % 0 mm 20 W/m2
14:15 7.8 °C 6.1 °C 1036.1 hPa NW 3.2 km/h 14.5 km/h 89 % 0 mm 19 W/m2
14:16 7.8 °C 5.9 °C 1036.1 hPa NW 1.6 km/h -1607.7 km/h 88 % 0 mm 20 W/m2
14:20 7.8 °C 5.9 °C 1036.1 hPa NW 3.2 km/h 14.5 km/h 88 % 0 mm 19 W/m2
14:21 7.8 °C 5.9 °C 1036.1 hPa NW 1.6 km/h -1607.7 km/h 88 % 0 mm 20 W/m2
14:25 7.8 °C 5.9 °C 1036.1 hPa NW 3.2 km/h 14.5 km/h 88 % 0 mm 19 W/m2
14:26 7.8 °C 6.1 °C 1036.1 hPa NW 1.6 km/h -1607.7 km/h 89 % 0 mm 19 W/m2
14:30 7.8 °C 6.1 °C 1036.1 hPa Calm   14.5 km/h 89 % 0 mm 18 W/m2
14:31 7.8 °C 6.1 °C 1036.1 hPa NW 1.6 km/h -1607.7 km/h 89 % 0 mm 19 W/m2
14:36 7.8 °C 6.1 °C 1036.1 hPa NW 1.6 km/h -1607.7 km/h 89 % 0 mm 19 W/m2
14:40 7.7 °C 5.8 °C 1036.1 hPa NW 3.2 km/h 3.2 km/h 88 % 0 mm 16 W/m2
14:41 7.7 °C 5.8 °C 1036.1 hPa NW 3.2 km/h -1607.7 km/h 88 % 0 mm 16 W/m2
14:45 7.7 °C 5.8 °C 1036.1 hPa NW 3.2 km/h 14.5 km/h 88 % 0 mm 14 W/m2
14:46 7.7 °C 5.8 °C 1036.1 hPa NW 3.2 km/h -1607.7 km/h 88 % 0 mm 16 W/m2
14:50 7.7 °C 5.8 °C 1036.1 hPa NW 1.6 km/h 1.6 km/h 88 % 0 mm 14 W/m2
14:51 7.7 °C 5.8 °C 1036.1 hPa NW 3.2 km/h -1607.7 km/h 88 % 0 mm 16 W/m2
14:55 7.7 °C 5.8 °C 1036.1 hPa Calm   14.5 km/h 88 % 0 mm 12 W/m2
14:56 7.7 °C 5.8 °C 1036.1 hPa NW 1.6 km/h -1607.7 km/h 88 % 0 mm 14 W/m2
15:00 7.7 °C 5.8 °C 1036.1 hPa NW 1.6 km/h 1.6 km/h 88 % 0 mm 14 W/m2
15:01 7.7 °C 5.8 °C 1036.1 hPa NW 1.6 km/h -1607.7 km/h 88 % 0 mm 14 W/m2
15:05 7.7 °C 5.8 °C 1036.1 hPa NW 1.6 km/h 14.5 km/h 88 % 0 mm 12 W/m2
15:06 7.7 °C 5.8 °C 1036.1 hPa NW 1.6 km/h -1607.7 km/h 88 % 0 mm 14 W/m2
15:10 7.7 °C 5.8 °C 1036.1 hPa NW 1.6 km/h 14.5 km/h 88 % 0 mm 11 W/m2
15:11 7.7 °C 5.8 °C 1036.1 hPa NW 1.6 km/h -1607.7 km/h 88 % 0 mm 11 W/m2
15:16 7.7 °C 5.8 °C 1036.1 hPa NW 1.6 km/h -1607.7 km/h 88 % 0 mm 11 W/m2
15:20 7.7 °C 5.8 °C 1036.1 hPa NW 1.6 km/h 1.6 km/h 88 % 0 mm 9 W/m2
15:21 7.7 °C 5.8 °C 1036.1 hPa NW 1.6 km/h -1607.7 km/h 88 % 0 mm 11 W/m2
15:25 7.7 °C 5.8 °C 1036.1 hPa Calm   14.5 km/h 88 % 0 mm 9 W/m2
15:26 7.7 °C 5.9 °C 1036.1 hPa Calm   -1607.7 km/h 89 % 0 mm 9 W/m2
15:30 7.7 °C 5.9 °C 1036.1 hPa NW 1.6 km/h 14.5 km/h 89 % 0 mm 7 W/m2
15:31 7.7 °C 5.9 °C 1036.1 hPa Calm   -1607.7 km/h 89 % 0 mm 9 W/m2
15:35 7.7 °C 5.9 °C 1036.1 hPa NW 1.6 km/h 14.5 km/h 89 % 0 mm 7 W/m2
15:36 7.7 °C 5.9 °C 1036.1 hPa Calm   -1607.7 km/h 89 % 0 mm 9 W/m2
15:40 7.6 °C 5.9 °C 1036.1 hPa NW 3.2 km/h 14.5 km/h 89 % 0 mm 7 W/m2
15:41 7.7 °C 5.8 °C 1036.1 hPa NW 3.2 km/h -1607.7 km/h 88 % 0 mm 6 W/m2
15:45 7.6 °C 5.7 °C 1036.1 hPa NW 3.2 km/h 14.5 km/h 88 % 0 mm 5 W/m2
15:46 7.7 °C 5.8 °C 1036.1 hPa NW 3.2 km/h -1607.7 km/h 88 % 0 mm 6 W/m2
15:51 7.7 °C 5.8 °C 1036.1 hPa NW 3.2 km/h -1607.7 km/h 88 % 0 mm 6 W/m2
15:55 7.6 °C 5.7 °C 1036.1 hPa NW 1.6 km/h 14.5 km/h 88 % 0 mm 0 W/m2
15:56 7.6 °C 5.7 °C 1036.1 hPa Calm   -1607.7 km/h 88 % 0 mm 1 W/m2
16:00 7.6 °C 5.7 °C 1036.1 hPa Calm   14.5 km/h 88 % 0 mm 0 W/m2
16:01 7.6 °C 5.7 °C 1036.1 hPa Calm   -1607.7 km/h 88 % 0 mm 1 W/m2
16:05 7.5 °C 5.7 °C 1036.1 hPa Calm   14.5 km/h 88 % 0 mm 0 W/m2
16:06 7.6 °C 5.7 °C 1036.1 hPa Calm   -1607.7 km/h 88 % 0 mm 1 W/m2
16:10 7.5 °C 5.7 °C 1036.1 hPa Calm   14.5 km/h 88 % 0 mm 0 W/m2
16:11 7.5 °C 5.7 °C 1036.1 hPa Calm   -1607.7 km/h 88 % 0 mm 0 W/m2
16:15 7.5 °C 5.8 °C 1036.1 hPa Calm   14.5 km/h 89 % 0 mm 0 W/m2
16:16 7.5 °C 5.7 °C 1036.1 hPa Calm   -1607.7 km/h 88 % 0 mm 0 W/m2
16:20 7.5 °C 5.7 °C 1036.1 hPa Calm   14.5 km/h 88 % 0 mm 0 W/m2
16:21 7.5 °C 5.7 °C 1036.1 hPa Calm   -1607.7 km/h 88 % 0 mm 0 W/m2
16:25 7.4 °C 5.6 °C 1036.1 hPa NW 1.6 km/h 14.5 km/h 88 % 0 mm 0 W/m2
16:26 7.4 °C 5.6 °C 1036.1 hPa Calm   -1607.7 km/h 88 % 0 mm 0 W/m2
16:31 7.4 °C 5.6 °C 1036.1 hPa Calm   -1607.7 km/h 88 % 0 mm 0 W/m2
16:35 7.4 °C 5.6 °C 1036.1 hPa Calm   14.5 km/h 88 % 0 mm 0 W/m2
16:36 7.4 °C 5.6 °C 1036.1 hPa Calm   -1607.7 km/h 88 % 0 mm 0 W/m2
16:40 7.4 °C 5.6 °C 1036.1 hPa NW 1.6 km/h 1.6 km/h 88 % 0 mm 0 W/m2
16:41 7.4 °C 5.6 °C 1036.1 hPa Calm   -1607.7 km/h 88 % 0 mm 0 W/m2
16:45 7.4 °C 5.6 °C 1036.1 hPa NW 1.6 km/h 14.5 km/h 88 % 0 mm 0 W/m2
16:46 7.4 °C 5.6 °C 1036.1 hPa Calm   -1607.7 km/h 88 % 0 mm 0 W/m2
16:50 7.4 °C 5.6 °C 1036.1 hPa Calm   14.5 km/h 88 % 0 mm 0 W/m2
16:51 7.4 °C 5.6 °C 1036.1 hPa Calm   -1607.7 km/h 88 % 0 mm 0 W/m2
16:55 7.4 °C 5.7 °C 1036.1 hPa Calm   14.5 km/h 89 % 0 mm 0 W/m2
16:56 7.4 °C 5.7 °C 1036.1 hPa Calm   -1607.7 km/h 89 % 0 mm 0 W/m2
17:00 7.4 °C 5.7 °C 1036.1 hPa Calm   14.5 km/h 89 % 0 mm 0 W/m2
17:01 7.4 °C 5.7 °C 1036.1 hPa Calm   -1607.7 km/h 89 % 0 mm 0 W/m2
17:05 7.3 °C 5.7 °C 1036.1 hPa Calm   14.5 km/h 89 % 0 mm 0 W/m2
17:06 7.4 °C 5.7 °C 1036.1 hPa Calm   -1607.7 km/h 89 % 0 mm 0 W/m2
17:11 7.3 °C 5.7 °C 1036.1 hPa Calm   -1607.7 km/h 89 % 0 mm 0 W/m2
17:15 7.3 °C 5.6 °C 1036.1 hPa NW 1.6 km/h 14.5 km/h 89 % 0 mm 0 W/m2
17:16 7.3 °C 5.7 °C 1036.1 hPa Calm   -1607.7 km/h 89 % 0 mm 0 W/m2
17:20 7.3 °C 5.6 °C 1036.1 hPa NW 1.6 km/h 14.5 km/h 89 % 0 mm 0 W/m2
17:21 7.3 °C 5.7 °C 1036.1 hPa Calm   -1607.7 km/h 89 % 0 mm 0 W/m2
17:25 7.2 °C 5.4 °C 1036.1 hPa NW 3.2 km/h 14.5 km/h 88 % 0 mm 0 W/m2
17:26 7.3 °C 5.3 °C 1036.1 hPa NW 1.6 km/h -1607.7 km/h 87 % 0 mm 0 W/m2
17:30 7.3 °C 5.3 °C 1036.1 hPa NW 1.6 km/h 1.6 km/h 87 % 0 mm 0 W/m2
17:31 7.3 °C 5.3 °C 1036.1 hPa NW 1.6 km/h -1607.7 km/h 87 % 0 mm 0 W/m2
17:35 7.3 °C 5.3 °C 1036.1 hPa Calm   14.5 km/h 87 % 0 mm 0 W/m2
17:36 7.3 °C 5.3 °C 1036.1 hPa NW 1.6 km/h -1607.7 km/h 87 % 0 mm 0 W/m2
17:40 7.3 °C 5.3 °C 1036.1 hPa Calm   14.5 km/h 87 % 0 mm 0 W/m2
17:41 7.3 °C 5.4 °C 1036.1 hPa Calm   -1607.7 km/h 88 % 0 mm 0 W/m2
17:45 7.3 °C 5.4 °C 1036.1 hPa Calm   14.5 km/h 88 % 0 mm 0 W/m2
17:46 7.3 °C 5.4 °C 1036.1 hPa Calm   -1607.7 km/h 88 % 0 mm 0 W/m2
17:51 7.3 °C 5.4 °C 1036.1 hPa Calm   -1607.7 km/h 88 % 0 mm 0 W/m2
17:55 7.3 °C 5.4 °C 1036.1 hPa Calm   14.5 km/h 88 % 0 mm 0 W/m2
17:56 7.3 °C 5.4 °C 1035.8 hPa Calm   -1607.7 km/h 88 % 0 mm 0 W/m2
18:00 7.2 °C 5.4 °C 1036.1 hPa Calm   14.5 km/h 88 % 0 mm 0 W/m2
18:01 7.3 °C 5.4 °C 1035.8 hPa Calm   -1607.7 km/h 88 % 0 mm 0 W/m2
18:05 7.2 °C 5.4 °C 1035.8 hPa NW 1.6 km/h 14.5 km/h 88 % 0 mm 0 W/m2
18:06 7.3 °C 5.4 °C 1035.8 hPa Calm   -1607.7 km/h 88 % 0 mm 0 W/m2
18:10 7.2 °C 5.4 °C 1035.8 hPa NW 1.6 km/h 14.5 km/h 88 % 0 mm 0 W/m2
18:11 7.2 °C 5.4 °C 1036.1 hPa NW 1.6 km/h -1607.7 km/h 88 % 0 mm 0 W/m2
18:15 7.2 °C 5.4 °C 1036.1 hPa NW 3.2 km/h 14.5 km/h 88 % 0 mm 0 W/m2
18:16 7.2 °C 5.4 °C 1036.1 hPa NW 1.6 km/h -1607.7 km/h 88 % 0 mm 0 W/m2
18:20 7.2 °C 5.4 °C 1035.8 hPa NW 1.6 km/h 14.5 km/h 88 % 0 mm 0 W/m2
18:21 7.2 °C 5.4 °C 1036.1 hPa NW 1.6 km/h -1607.7 km/h 88 % 0 mm 0 W/m2
18:25 7.2 °C 5.4 °C 1035.8 hPa NW 1.6 km/h 14.5 km/h 88 % 0 mm 0 W/m2
18:26 7.2 °C 5.4 °C 1036.1 hPa Calm   -1607.7 km/h 88 % 0 mm 0 W/m2
18:31 7.2 °C 5.4 °C 1036.1 hPa Calm   -1607.7 km/h 88 % 0 mm 0 W/m2
18:35 7.2 °C 5.4 °C 1036.1 hPa Calm   14.5 km/h 88 % 0 mm 0 W/m2
18:36 7.2 °C 5.4 °C 1036.1 hPa Calm   -1607.7 km/h 88 % 0 mm 0 W/m2
18:40 7.2 °C 5.3 °C 1036.1 hPa Calm   14.5 km/h 88 % 0 mm 0 W/m2
18:41 7.2 °C 5.3 °C 1036.1 hPa Calm   -1607.7 km/h 88 % 0 mm 0 W/m2
18:46 7.2 °C 5.3 °C 1036.1 hPa Calm   -1607.7 km/h 88 % 0 mm 0 W/m2
18:50 7.1 °C 5.3 °C 1036.1 hPa Calm   14.5 km/h 88 % 0 mm 0 W/m2
18:51 7.2 °C 5.3 °C 1036.1 hPa Calm   -1607.7 km/h 88 % 0 mm 0 W/m2
18:56 7.1 °C 5.3 °C 1036.1 hPa Calm   -1607.7 km/h 88 % 0 mm 0 W/m2
19:00 7.1 °C 5.3 °C 1036.1 hPa Calm   14.5 km/h 88 % 0 mm 0 W/m2
19:01 7.1 °C 5.3 °C 1036.1 hPa Calm   -1607.7 km/h 88 % 0 mm 0 W/m2
19:06 7.1 °C 5.3 °C 1036.1 hPa Calm   -1607.7 km/h 88 % 0 mm 0 W/m2
19:10 7.1 °C 5.3 °C 1036.1 hPa NW 1.6 km/h 14.5 km/h 88 % 0 mm 0 W/m2
19:11 7.1 °C 5.3 °C 1036.1 hPa NW 1.6 km/h -1607.7 km/h 88 % 0 mm 0 W/m2
19:16 7.1 °C 5.3 °C 1036.1 hPa NW 1.6 km/h -1607.7 km/h 88 % 0 mm 0 W/m2
19:20 7.1 °C 5.2 °C 1036.1 hPa NW 3.2 km/h 3.2 km/h 88 % 0 mm 0 W/m2
19:21 7.1 °C 5.3 °C 1036.1 hPa NW 1.6 km/h -1607.7 km/h 88 % 0 mm 0 W/m2
19:25 7.1 °C 5.2 °C 1036.1 hPa Calm   14.5 km/h 88 % 0 mm 0 W/m2
19:26 7.1 °C 5.2 °C 1036.5 hPa Calm   -1607.7 km/h 88 % 0 mm 0 W/m2
19:30 7.1 °C 5.3 °C 1036.5 hPa Calm   14.5 km/h 88 % 0 mm 0 W/m2
19:31 7.1 °C 5.2 °C 1036.5 hPa Calm   -1607.7 km/h 88 % 0 mm 0 W/m2
19:35 7.1 °C 5.2 °C 1036.5 hPa Calm   14.5 km/h 88 % 0 mm 0 W/m2
19:36 7.1 °C 5.2 °C 1036.5 hPa Calm   -1607.7 km/h 88 % 0 mm 0 W/m2
19:40 7.1 °C 5.2 °C 1036.5 hPa Calm   14.5 km/h 88 % 0 mm 0 W/m2
19:41 7.1 °C 5.2 °C 1036.5 hPa Calm   -1607.7 km/h 88 % 0 mm 0 W/m2
19:45 7.1 °C 5.2 °C 1036.5 hPa Calm   14.5 km/h 88 % 0 mm 0 W/m2
19:46 7.1 °C 5.2 °C 1036.5 hPa Calm   -1607.7 km/h 88 % 0 mm 0 W/m2
19:50 7.1 °C 5.2 °C 1036.5 hPa Calm   14.5 km/h 88 % 0 mm 0 W/m2
19:51 7.1 °C 5.2 °C 1036.5 hPa Calm   -1607.7 km/h 88 % 0 mm 0 W/m2
19:55 7.1 °C 5.2 °C 1036.5 hPa Calm   14.5 km/h 88 % 0 mm 0 W/m2
19:56 7.1 °C 5.2 °C 1036.5 hPa Calm   -1607.7 km/h 88 % 0 mm 0 W/m2
20:01 7.1 °C 5.2 °C 1036.5 hPa Calm   -1607.7 km/h 88 % 0 mm 0 W/m2
20:05 7.1 °C 5.2 °C 1036.1 hPa Calm   14.5 km/h 88 % 0 mm 0 W/m2
20:06 7.1 °C 5.2 °C 1036.5 hPa Calm   -1607.7 km/h 88 % 0 mm 0 W/m2
20:10 7 °C 5.2 °C 1036.5 hPa NW 1.6 km/h 1.6 km/h 88 % 0 mm 0 W/m2
20:11 7.1 °C 5.1 °C 1036.5 hPa NW 1.6 km/h -1607.7 km/h 87 % 0 mm 0 W/m2
20:15 7.1 °C 5.2 °C 1036.5 hPa NW 1.6 km/h 14.5 km/h 88 % 0 mm 0 W/m2
20:16 7.1 °C 5.1 °C 1036.5 hPa NW 1.6 km/h -1607.7 km/h 87 % 0 mm 0 W/m2
20:21 7.1 °C 5.1 °C 1036.5 hPa NW 1.6 km/h -1607.7 km/h 87 % 0 mm 0 W/m2
20:25 7.1 °C 5.1 °C 1036.5 hPa Calm   14.5 km/h 87 % 0 mm 0 W/m2
20:26 7.1 °C 5.1 °C 1036.5 hPa Calm   -1607.7 km/h 87 % 0 mm 0 W/m2
20:30 7.1 °C 5.1 °C 1036.5 hPa NW 1.6 km/h 1.6 km/h 87 % 0 mm 0 W/m2
20:31 7.1 °C 5.1 °C 1036.5 hPa Calm   -1607.7 km/h 87 % 0 mm 0 W/m2
20:35 7.1 °C 4.9 °C 1036.1 hPa NW 1.6 km/h 14.5 km/h 86 % 0 mm 0 W/m2
20:36 7.1 °C 5.1 °C 1036.5 hPa Calm   -1607.7 km/h 87 % 0 mm 0 W/m2
20:40 7.1 °C 4.9 °C 1036.5 hPa Calm   14.5 km/h 86 % 0 mm 0 W/m2
20:41 7.1 °C 4.9 °C 1036.5 hPa Calm   -1607.7 km/h 86 % 0 mm 0 W/m2
20:45 7.1 °C 4.9 °C 1036.5 hPa Calm   14.5 km/h 86 % 0 mm 0 W/m2
20:46 7.1 °C 4.9 °C 1036.5 hPa Calm   -1607.7 km/h 86 % 0 mm 0 W/m2
20:51 7.1 °C 4.9 °C 1036.5 hPa Calm   -1607.7 km/h 86 % 0 mm 0 W/m2
20:55 7.1 °C 5.2 °C 1036.5 hPa Calm   14.5 km/h 88 % 0 mm 0 W/m2
20:56 7.1 °C 5.3 °C 1036.1 hPa Calm   -1607.7 km/h 88 % 0 mm 0 W/m2
21:01 7.1 °C 5.3 °C 1036.1 hPa Calm   -1607.7 km/h 88 % 0 mm 0 W/m2
21:05 7 °C 5.2 °C 1036.1 hPa Calm   14.5 km/h 88 % 0 mm 0 W/m2
21:06 7.1 °C 5.3 °C 1036.1 hPa Calm   -1607.7 km/h 88 % 0 mm 0 W/m2
21:10 7 °C 5.2 °C 1036.1 hPa Calm   14.5 km/h 88 % 0 mm 0 W/m2
21:11 7 °C 5.3 °C 1036.1 hPa Calm   -1607.7 km/h 89 % 0 mm 0 W/m2
21:15 6.9 °C 5.3 °C 1036.1 hPa Calm   14.5 km/h 89 % 0 mm 0 W/m2
21:16 7 °C 5.3 °C 1036.1 hPa Calm   -1607.7 km/h 89 % 0 mm 0 W/m2
21:20 6.9 °C 5.2 °C 1036.1 hPa Calm   14.5 km/h 89 % 0 mm 0 W/m2
21:21 7 °C 5.3 °C 1036.1 hPa Calm   -1607.7 km/h 89 % 0 mm 0 W/m2
21:25 6.9 °C 5.2 °C 1036.1 hPa Calm   14.5 km/h 89 % 0 mm 0 W/m2
21:26 6.9 °C 5.1 °C 1036.5 hPa NW 1.6 km/h -1607.7 km/h 88 % 0 mm 0 W/m2
21:30 6.8 °C 5 °C 1036.5 hPa NW 1.6 km/h 1.6 km/h 88 % 0 mm 0 W/m2
21:31 6.9 °C 5.1 °C 1036.5 hPa NW 1.6 km/h -1607.7 km/h 88 % 0 mm 0 W/m2
21:35 6.8 °C 5.2 °C 1036.1 hPa NW 1.6 km/h 14.5 km/h 89 % 0 mm 0 W/m2
21:36 6.9 °C 5.1 °C 1036.5 hPa NW 1.6 km/h -1607.7 km/h 88 % 0 mm 0 W/m2
21:40 6.8 °C 5.2 °C 1036.1 hPa Calm   14.5 km/h 89 % 0 mm 0 W/m2
21:41 6.8 °C 5.2 °C 1036.1 hPa Calm   -1607.7 km/h 89 % 0 mm 0 W/m2
21:46 6.8 °C 5.2 °C 1036.1 hPa Calm   -1607.7 km/h 89 % 0 mm 0 W/m2
21:50 6.8 °C 5.2 °C 1036.1 hPa Calm   14.5 km/h 89 % 0 mm 0 W/m2
21:51 6.8 °C 5.2 °C 1036.1 hPa Calm   -1607.7 km/h 89 % 0 mm 0 W/m2
21:55 6.8 °C 5.2 °C 1036.1 hPa Calm   14.5 km/h 89 % 0 mm 0 W/m2
21:56 6.8 °C 5.2 °C 1036.1 hPa Calm   -1607.7 km/h 89 % 0 mm 0 W/m2
22:00 6.8 °C 5.1 °C 1036.1 hPa Calm   14.5 km/h 89 % 0 mm 0 W/m2
22:01 6.8 °C 5.2 °C 1036.1 hPa Calm   -1607.7 km/h 89 % 0 mm 0 W/m2
22:05 6.8 °C 5.1 °C 1036.1 hPa Calm   14.5 km/h 89 % 0 mm 0 W/m2
22:06 6.8 °C 5.2 °C 1036.1 hPa Calm   -1607.7 km/h 89 % 0 mm 0 W/m2
22:10 6.7 °C 5.1 °C 1036.1 hPa Calm   14.5 km/h 89 % 0 mm 0 W/m2
22:11 6.7 °C 5.1 °C 1036.1 hPa Calm   -1607.7 km/h 89 % 0 mm 0 W/m2
22:15 6.7 °C 5.1 °C 1036.1 hPa Calm   14.5 km/h 89 % 0 mm 0 W/m2
22:16 6.7 °C 5.1 °C 1036.1 hPa Calm   -1607.7 km/h 89 % 0 mm 0 W/m2
22:20 6.7 °C 5.1 °C 1036.1 hPa Calm   14.5 km/h 89 % 0 mm 0 W/m2
22:21 6.7 °C 5.1 °C 1036.1 hPa Calm   -1607.7 km/h 89 % 0 mm 0 W/m2
22:25 6.7 °C 5 °C 1036.1 hPa Calm   14.5 km/h 89 % 0 mm 0 W/m2
22:26 6.7 °C 5 °C 1036.1 hPa Calm   -1607.7 km/h 89 % 0 mm 0 W/m2
22:30 6.7 °C 5 °C 1036.1 hPa Calm   14.5 km/h 89 % 0 mm 0 W/m2
22:31 6.7 °C 5 °C 1036.1 hPa Calm   -1607.7 km/h 89 % 0 mm 0 W/m2
22:36 6.7 °C 5 °C 1036.1 hPa Calm   -1607.7 km/h 89 % 0 mm 0 W/m2
22:40 6.7 °C 5.1 °C 1036.1 hPa Calm   14.5 km/h 89 % 0 mm 0 W/m2
22:41 6.7 °C 5 °C 1036.1 hPa Calm   -1607.7 km/h 89 % 0 mm 0 W/m2
22:45 6.7 °C 5.1 °C 1036.5 hPa Calm   14.5 km/h 89 % 0 mm 0 W/m2
22:46 6.7 °C 5 °C 1036.1 hPa Calm   -1607.7 km/h 89 % 0 mm 0 W/m2
22:50 6.7 °C 5.1 °C 1036.1 hPa Calm   14.5 km/h 89 % 0 mm 0 W/m2
22:51 6.7 °C 5 °C 1036.1 hPa Calm   -1607.7 km/h 89 % 0 mm 0 W/m2
22:55 6.7 °C 5 °C 1036.1 hPa Calm   14.5 km/h 89 % 0 mm 0 W/m2
22:56 6.7 °C 5.1 °C 1036.1 hPa Calm   -1607.7 km/h 89 % 0 mm 0 W/m2
23:00 6.7 °C 5.1 °C 1036.1 hPa Calm   14.5 km/h 89 % 0 mm 0 W/m2
23:01 6.7 °C 5.1 °C 1036.1 hPa Calm   -1607.7 km/h 89 % 0 mm 0 W/m2
23:05 6.7 °C 5 °C 1036.1 hPa Calm   14.5 km/h 89 % 0 mm 0 W/m2
23:06 6.7 °C 5.1 °C 1036.1 hPa Calm   -1607.7 km/h 89 % 0 mm 0 W/m2
23:10 6.6 °C 4.9 °C 1036.1 hPa Calm   14.5 km/h 89 % 0 mm 0 W/m2
23:11 6.7 °C 5 °C 1036.1 hPa Calm   -1607.7 km/h 89 % 0 mm 0 W/m2
23:15 6.6 °C 4.9 °C 1036.1 hPa Calm   14.5 km/h 89 % 0 mm 0 W/m2
23:16 6.7 °C 5 °C 1036.1 hPa Calm   -1607.7 km/h 89 % 0 mm 0 W/m2
23:20 6.6 °C 5.1 °C 1036.1 hPa Calm   14.5 km/h 90 % 0 mm 0 W/m2
23:21 6.7 °C 5 °C 1036.1 hPa Calm   -1607.7 km/h 89 % 0 mm 0 W/m2
23:25 6.6 °C 5.1 °C 1036.1 hPa Calm   14.5 km/h 90 % 0 mm 0 W/m2
23:26 6.6 °C 5.1 °C 1036.1 hPa Calm   -1607.7 km/h 90 % 0 mm 0 W/m2
23:31 6.6 °C 5.1 °C 1036.1 hPa Calm   -1607.7 km/h 90 % 0 mm 0 W/m2
23:35 6.6 °C 5.1 °C 1036.1 hPa Calm   14.5 km/h 90 % 0 mm 0 W/m2
23:36 6.6 °C 5.1 °C 1036.1 hPa Calm   -1607.7 km/h 90 % 0 mm 0 W/m2
23:40 6.5 °C 5 °C 1036.1 hPa Calm   14.5 km/h 90 % 0 mm 0 W/m2
23:41 6.5 °C 5 °C 1036.1 hPa Calm   -1607.7 km/h 90 % 0 mm 0 W/m2
23:45 6.5 °C 5 °C 1036.1 hPa Calm   14.5 km/h 90 % 0 mm 0 W/m2
23:46 6.5 °C 5 °C 1036.1 hPa Calm   -1607.7 km/h 90 % 0 mm 0 W/m2
23:50 6.5 °C 5 °C 1036.1 hPa Calm   14.5 km/h 90 % 0 mm 0 W/m2
23:51 6.5 °C 5 °C 1036.1 hPa Calm   -1607.7 km/h 90 % 0 mm 0 W/m2
23:55 6.4 °C 4.9 °C 1036.1 hPa Calm   14.5 km/h 90 % 0 mm 0 W/m2
23:56 6.4 °C 4.9 °C 1036.1 hPa Calm   -1607.7 km/h 90 % 0 mm 0 W/m2
Delerius-Weather
Compliments of Weather Underground - 3.75 mb

Data updates at regular intervals.